TimeEST,TemperatureF,Dew PointF,Humidity,Sea Level PressureIn,VisibilityMPH,Wind Direction,Wind SpeedMPH,Gust SpeedMPH,PrecipitationIn,Events,Conditions,WindDirDegrees,DateUTC
12:11 AM,28.9,23.0,78,29.84,2.0,NW,19.6,28.8,0.00,Snow,Light Snow,320,2012-11-26 05:11:00
12:18 AM,28.0,23.0,81,29.84,1.0,NW,12.7,25.3,0.00,Snow,Light Snow,310,2012-11-26 05:18:00
12:52 AM,28.0,25.0,88,29.88,1.8,West,13.8,-,0.01,Snow,Light Snow,280,2012-11-26 05:52:00
12:55 AM,28.9,25.0,85,29.86,3.0,West,12.7,-,0.00,Snow,Light Snow,280,2012-11-26 05:55:00
1:55 AM,28.9,23.0,78,29.90,9.0,West,15.0,-,0.00,,Overcast,280,2012-11-26 06:55:00
2:07 AM,28.9,23.0,78,29.88,2.5,WNW,11.5,-,0.01,Snow,Light Snow,300,2012-11-26 07:07:00
2:19 AM,28.9,24.1,82,29.89,1.8,NW,12.7,18.4,0.03,Snow,Light Snow,310,2012-11-26 07:19:00
2:26 AM,28.9,25.0,85,29.90,1.5,NW,9.2,-,0.05,Snow,Light Snow,310,2012-11-26 07:26:00
2:29 AM,28.9,25.0,85,29.90,2.0,NW,9.2,-,0.05,Snow,Light Snow,310,2012-11-26 07:29:00
2:34 AM,28.9,24.1,82,29.90,1.8,NNW,13.8,-,0.05,Snow,Light Snow,330,2012-11-26 07:34:00
2:41 AM,28.0,24.1,85,29.91,0.8,NW,10.4,-,0.06,Snow,Light Snow,310,2012-11-26 07:41:00
2:50 AM,28.4,24.8,86,29.91,1.2,NW,10.4,-,0.06,Snow,Light Snow,310,2012-11-26 07:50:00
2:53 AM,28.4,24.8,86,29.91,1.2,NW,8.1,-,0.07,Snow,Light Snow,310,2012-11-26 07:53:00
2:55 AM,28.0,24.1,85,29.94,1.0,WNW,6.9,-,0.07,Snow,Light Snow,300,2012-11-26 07:55:00
3:05 AM,28.0,25.0,88,29.92,2.0,WNW,11.5,-,0.00,Snow,Light Snow,300,2012-11-26 08:05:00
3:12 AM,28.0,24.1,85,29.91,1.0,WNW,12.7,-,0.00,Snow,Light Snow,290,2012-11-26 08:12:00
3:15 AM,28.0,24.1,85,29.91,0.8,WNW,12.7,-,0.01,Snow,Light Snow,290,2012-11-26 08:15:00
3:39 AM,28.0,25.0,88,29.92,1.8,WNW,6.9,-,0.03,Snow,Light Snow,300,2012-11-26 08:39:00
3:44 AM,28.0,25.0,88,29.92,2.0,NW,6.9,-,0.03,Snow,Light Snow,310,2012-11-26 08:44:00
3:55 AM,28.0,24.1,85,29.95,1.8,NW,5.8,-,0.03,Snow,Light Snow,310,2012-11-26 08:55:00
4:03 AM,28.0,25.0,88,29.93,2.0,NW,5.8,-,0.00,Snow,Light Snow,320,2012-11-26 09:03:00
4:11 AM,28.0,24.1,85,29.94,3.0,NW,5.8,-,0.00,Snow,Light Snow,320,2012-11-26 09:11:00
4:30 AM,28.0,21.9,78,29.94,7.0,WNW,3.5,-,0.00,Snow,Light Snow,300,2012-11-26 09:30:00
4:55 AM,28.9,19.9,69,29.97,4.0,WNW,5.8,-,0.00,Snow,Light Snow,300,2012-11-26 09:55:00
5:35 AM,27.0,23.0,85,29.97,9.0,Variable,4.6,-,0.01,,Overcast,0,2012-11-26 10:35:00
5:55 AM,26.1,21.9,84,30.00,3.0,South,3.5,-,0.01,Snow,Light Snow,180,2012-11-26 10:55:00
6:37 AM,26.1,21.9,84,29.99,7.0,South,3.5,-,0.00,Snow,Light Snow,180,2012-11-26 11:37:00
6:55 AM,26.1,21.9,84,30.02,8.0,Variable,5.8,-,0.00,Snow,Light Snow,0,2012-11-26 11:55:00
7:10 AM,26.1,21.0,81,30.00,1.8,NE,5.8,-,0.00,Snow,Light Snow,40,2012-11-26 12:10:00
7:14 AM,26.1,21.0,81,30.00,3.0,NE,3.5,-,0.00,Snow,Light Snow,50,2012-11-26 12:14:00
7:26 AM,26.1,21.9,84,29.99,9.0,Calm,Calm,-,0.00,,Overcast,0,2012-11-26 12:26:00
7:45 AM,26.1,21.9,84,30.01,4.0,Calm,Calm,-,0.00,Snow,Light Snow,0,2012-11-26 12:45:00
7:55 AM,26.1,21.9,84,30.04,1.8,Calm,Calm,-,0.00,Snow,Light Snow,0,2012-11-26 12:55:00
8:23 AM,25.0,21.9,88,30.03,3.0,South,5.8,-,0.01,Snow,Light Snow,190,2012-11-26 13:23:00
8:43 AM,26.1,23.0,88,30.05,1.8,SW,4.6,-,0.01,Snow,Light Snow,220,2012-11-26 13:43:00
8:55 AM,26.1,23.0,88,30.08,0.8,Calm,Calm,-,0.01,Snow,Light Snow,0,2012-11-26 13:55:00
9:10 AM,26.1,21.9,84,30.04,0.5,SW,4.6,-,0.00,Fog-Snow,Snow,220,2012-11-26 14:10:00
9:24 AM,25.0,21.9,88,30.05,0.2,WSW,6.9,-,0.02,Fog-Snow,Heavy Snow,240,2012-11-26 14:24:00
9:55 AM,25.0,21.9,88,30.10,0.2,SSW,5.8,-,0.05,Fog-Snow,Heavy Snow,210,2012-11-26 14:55:00
10:30 AM,25.0,21.0,85,30.08,0.8,SSW,9.2,-,0.04,Snow,Light Snow,210,2012-11-26 15:30:00
10:42 AM,26.1,21.9,84,30.08,0.8,West,8.1,-,0.05,Snow,Light Snow,260,2012-11-26 15:42:00
10:55 AM,26.1,23.0,88,30.11,1.2,West,5.8,-,0.06,Snow,Light Snow,260,2012-11-26 15:55:00
11:07 AM,27.0,21.9,81,30.09,3.0,West,5.8,-,0.00,Snow,Light Snow,280,2012-11-26 16:07:00
11:14 AM,27.0,21.0,78,30.09,4.0,West,4.6,-,0.00,Snow,Light Snow,280,2012-11-26 16:14:00
11:22 AM,27.0,19.9,75,30.09,6.0,West,11.5,20.7,0.00,Snow,Light Snow,270,2012-11-26 16:22:00
11:48 AM,27.0,19.9,75,30.09,2.0,West,8.1,-,0.00,Snow,Light Snow,280,2012-11-26 16:48:00
11:55 AM,27.0,19.9,75,30.12,5.0,West,10.4,16.1,0.00,Snow,Light Snow,270,2012-11-26 16:55:00
12:40 PM,27.0,19.9,75,30.08,4.0,West,12.7,-,0.00,Snow,Light Snow,260,2012-11-26 17:40:00
12:44 PM,27.0,21.0,78,30.08,2.5,West,11.5,-,0.00,Snow,Light Snow,260,2012-11-26 17:44:00
12:51 PM,27.0,21.0,78,30.12,1.5,WSW,9.2,-,0.00,Snow,Light Snow,250,2012-11-26 17:51:00
12:59 PM,27.0,21.9,81,30.09,1.2,West,12.7,-,0.00,Snow,Light Snow,260,2012-11-26 17:59:00
1:07 PM,28.0,21.0,75,30.09,3.0,West,13.8,-,0.01,Snow,Light Snow,260,2012-11-26 18:07:00
1:55 PM,28.0,19.0,69,30.10,10.0,WSW,12.7,-,0.01,,Overcast,250,2012-11-26 18:55:00
2:25 PM,28.0,19.9,72,30.08,9.0,WSW,18.4,25.3,0.00,Snow,Light Snow,240,2012-11-26 19:25:00
2:39 PM,28.0,21.0,75,30.08,1.8,West,15.0,27.6,0.00,Snow,Light Snow,260,2012-11-26 19:39:00
2:43 PM,28.0,21.9,78,30.08,2.0,West,13.8,23.0,0.00,Snow,Light Snow,260,2012-11-26 19:43:00
2:55 PM,28.0,23.0,81,30.11,2.0,West,13.8,-,0.00,Snow,Light Snow,260,2012-11-26 19:55:00
3:00 PM,28.0,23.0,81,30.08,1.5,West,10.4,-,0.00,Snow,Light Snow,260,2012-11-26 20:00:00
3:19 PM,27.0,21.9,81,30.08,3.0,North,9.2,-,0.00,Snow,Light Snow,360,2012-11-26 20:19:00
3:55 PM,28.0,19.9,72,30.14,7.0,NW,8.1,-,0.00,Snow,Light Snow,320,2012-11-26 20:55:00
4:11 PM,28.0,18.0,66,30.12,10.0,NNW,9.2,-,0.00,,Overcast,330,2012-11-26 21:11:00
4:55 PM,27.0,17.1,66,30.15,10.0,North,6.9,-,0.00,,Overcast,10,2012-11-26 21:55:00
5:55 PM,26.1,18.0,71,30.17,9.0,North,4.6,-,0.00,,Overcast,10,2012-11-26 22:55:00
6:14 PM,25.0,19.0,78,30.16,1.8,NNW,8.1,-,0.00,Snow,Light Snow,340,2012-11-26 23:14:00
6:31 PM,25.0,19.0,78,30.16,3.0,North,5.8,-,0.00,Snow,Light Snow,360,2012-11-26 23:31:00
6:36 PM,25.0,19.0,78,30.16,1.8,North,6.9,-,0.00,Snow,Light Snow,350,2012-11-26 23:36:00
6:44 PM,25.0,19.0,78,30.17,0.8,North,4.6,-,0.01,Snow,Light Snow,350,2012-11-26 23:44:00
6:55 PM,24.1,19.9,84,30.20,0.8,North,5.8,-,0.02,Snow,Light Snow,10,2012-11-26 23:55:00
7:09 PM,25.0,21.0,85,30.18,1.0,Variable,3.5,-,0.01,Snow,Light Snow,0,2012-11-27 00:09:00
7:22 PM,25.0,19.9,81,30.18,1.8,NNE,4.6,-,0.01,Snow,Light Snow,20,2012-11-27 00:22:00
7:30 PM,25.0,21.0,85,30.19,2.0,NNE,4.6,-,0.01,Snow,Light Snow,20,2012-11-27 00:30:00
7:36 PM,24.1,19.9,84,30.19,3.0,NNE,5.8,-,0.01,Snow,Light Snow,20,2012-11-27 00:36:00
7:50 PM,24.8,19.4,80,30.19,5.0,Calm,Calm,-,0.01,Snow,Light Snow,0,2012-11-27 00:50:00
7:55 PM,24.1,19.9,84,30.22,7.0,NNE,3.5,-,0.01,Snow,Light Snow,20,2012-11-27 00:55:00
8:18 PM,25.0,19.9,81,30.18,2.5,NW,4.6,-,0.00,Snow,Light Snow,310,2012-11-27 01:18:00
8:26 PM,25.0,19.9,81,30.19,9.0,NW,3.5,-,0.00,,Overcast,310,2012-11-27 01:26:00
8:35 PM,25.0,19.9,81,30.19,2.5,WNW,3.5,-,0.01,Snow,Light Snow,300,2012-11-27 01:35:00
8:43 PM,25.0,19.9,81,30.20,1.2,West,4.6,-,0.01,Snow,Light Snow,280,2012-11-27 01:43:00
8:55 PM,25.0,21.0,85,30.23,2.0,West,4.6,-,0.01,Snow,Light Snow,280,2012-11-27 01:55:00
9:06 PM,25.0,19.9,81,30.20,3.0,Calm,Calm,-,0.00,Snow,Light Snow,0,2012-11-27 02:06:00
9:29 PM,25.0,19.0,78,30.20,2.5,West,3.5,-,0.00,Snow,Light Snow,280,2012-11-27 02:29:00
9:42 PM,25.0,19.0,78,30.21,0.8,North,9.2,-,0.01,Snow,Light Snow,350,2012-11-27 02:42:00
9:51 PM,24.8,19.4,80,30.20,0.5,North,6.9,-,0.02,Fog-Snow,Snow,360,2012-11-27 02:51:00
9:55 PM,24.1,19.9,84,30.23,0.8,North,5.8,-,0.02,Snow,Light Snow,350,2012-11-27 02:55:00
9:57 PM,24.1,19.9,84,30.20,1.0,North,6.9,-,0.00,Snow,Light Snow,360,2012-11-27 02:57:00
10:08 PM,23.0,19.0,85,30.20,3.0,North,4.6,-,0.00,Snow,Light Snow,10,2012-11-27 03:08:00
10:18 PM,23.0,18.0,81,30.20,6.0,NE,4.6,-,0.00,Snow,Light Snow,40,2012-11-27 03:18:00
10:45 PM,23.0,17.1,78,30.21,2.5,NE,4.6,-,0.00,Snow,Light Snow,40,2012-11-27 03:45:00
10:55 PM,23.0,16.0,74,30.24,8.0,NE,4.6,-,0.00,Snow,Light Snow,40,2012-11-27 03:55:00
11:09 PM,23.0,16.0,74,30.21,10.0,ENE,3.5,-,0.00,,Overcast,60,2012-11-27 04:09:00
11:38 PM,23.0,16.0,74,30.21,3.0,SSW,4.6,-,0.00,Snow,Light Snow,210,2012-11-27 04:38:00
11:41 PM,21.9,16.0,78,30.21,1.8,SSW,4.6,-,0.00,Snow,Light Snow,210,2012-11-27 04:41:00
11:55 PM,21.9,18.0,85,30.25,1.0,SW,3.5,-,0.01,Snow,Light Snow,220,2012-11-27 04:55:00